Temperature
25 24 24 24 20 18 20 23 26 26 25 26 26 25 24 23 22 20 20 20 21 21 21 20 20 20 20 20 20 20 19 19 19 19 19 19 19 19 19 19 19 19 19 19 19 19 19 19 19
24 24 24 23 18 19 21 23 25 26 26 26 25 24 23 22 21 20 20 20 21 21 21 20 20 20 20 20 19 19 19 19 19 19 19 19 19 19 19 19 19 19 18 18 18 18 18 18 18
24 23 23 19 19 19 23 25 25 26 27 27 26 25 23 21 21 20 21 20 21 21 20 20 20 20 20 20 19 19 19 19 19 19 19 18 18 18 18 18 18 18 18 18 18 18 18 18 18
23 23 22 18 20 21 24 26 26 26 27 27 26 25 23 22 22 21 20 21 21 20 20 20 20 20 20 20 19 19 19 19 19 19 19 18 18 18 18 18 18 18 18 18 18 18 18 18 18
22 22 19 19 20 22 24 27 27 26 26 26 25 23 22 22 22 21 21 21 21 20 20 20 19 19 19 19 19 19 18 18 18 18 18 18 18 18 18 18 18 18 18 18 18 18 18 18 18
22 20 19 19 21 24 25 27 27 26 26 25 24 22 22 22 22 21 21 21 21 20 20 19 19 19 19 19 18 18 18 18 18 18 18 18 18 18 18 17 17 17 17 17 18 18 18 18 18
21 18 19 21 22 23 26 27 26 25 25 26 24 22 21 22 22 21 21 21 21 21 21 20 19 19 19 19 18 18 18 18 18 18 18 18 18 18 18 18 17 17 17 17 18 18 18 18 18
23 19 21 21 23 24 26 26 27 27 26 26 25 23 22 22 22 21 21 21 21 21 21 21 20 20 19 19 19 19 18 18 18 18 17 17 18 18 18 18 17 17 17 17 17 17 18 18 18
23 19 19 21 24 25 26 25 26 28 27 26 26 25 24 22 22 21 21 21 21 21 21 21 20 20 20 19 19 19 19 18 18 17 17 17 18 18 18 17 17 17 17 17 17 17 17 18 18
23 18 20 23 25 25 26 26 26 26 25 25 25 25 24 22 22 22 21 21 21 21 21 21 20 20 20 20 19 19 19 18 18 18 18 18 18 18 18 17 17 17 17 17 17 17 17 18 18
21 20 22 24 26 26 26 26 26 25 23 24 24 24 23 23 22 22 22 22 22 22 21 21 21 20 20 20 20 19 19 18 18 18 18 18 18 18 17 17 17 17 17 17 17 17 17 17 17
22 22 24 25 27 27 27 27 25 25 25 26 27 26 24 23 23 22 22 22 22 22 22 21 21 20 20 20 20 19 19 19 18 18 18 18 18 17 17 17 17 17 17 17 17 17 17 17 17
21 22 25 26 27 27 28 27 27 26 26 26 26 26 25 24 23 23 23 22 22 22 22 21 21 20 20 20 19 19 19 19 18 18 18 17 17 17 17 16 16 17 17 17 17 17 17 17 17
22 23 24 26 27 28 28 27 26 26 26 25 24 25 25 24 23 23 23 22 22 22 21 21 21 20 20 20 19 19 18 18 18 18 18 18 17 17 17 17 17 17 17 17 17 17 16 16 17
25 23 22 24 25 27 28 26 26 27 25 24 23 24 24 24 24 23 23 23 22 22 21 21 20 20 20 20 19 19 18 18 18 18 18 17 17 17 17 17 17 17 17 17 16 16 16 17 17
22 22 22 22 24 27 27 25 26 27 25 23 23 23 23 23 24 24 24 23 22 22 21 21 20 20 20 19 19 19 18 18 18 18 17 17 17 17 17 16 16 17 17 17 16 16 16 16 16
20 21 22 22 24 26 26 24 25 28 26 24 23 22 22 23 23 24 24 23 23 22 22 21 20 20 19 19 19 19 18 18 18 17 17 17 17 17 17 16 16 16 16 16 16 16 16 16 16
20 21 22 22 23 25 24 23 25 28 27 25 23 23 22 22 24 24 24 23 23 22 22 21 20 20 19 19 19 18 18 18 17 17 17 17 17 17 17 16 16 16 16 15 15 15 15 15 14
21 21 20 22 23 24 23 23 24 27 27 25 24 23 23 23 24 24 23 23 22 22 21 21 20 20 19 19 19 18 18 17 17 17 16 16 16 16 16 16 16 15 15 15 15 14 14 14 13
21 20 20 21 23 24 23 23 23 24 25 26 26 24 24 23 23 23 23 22 22 21 21 21 21 20 19 19 19 18 18 17 17 16 15 15 15 15 15 15 15 14 14 14 14 14 13 12 11
21 20 21 21 22 23 24 23 22 23 26 27 28 27 25 24 23 22 22 22 21 21 21 21 20 19 19 18 18 18 17 17 16 15 15 14 14 14 14 14 14 14 14 14 13 12 11 10 10
20 22 22 22 22 20 23 20 21 22 23 24 26 27 25 24 23 22 22 21 21 21 20 20 20 19 18 18 18 17 17 16 15 15 14 13 13 13 13 13 13 13 13 13 11 10 10 9 9
22 22 23 24 22 20 20 20 19 20 23 23 23 27 26 24 22 21 21 21 20 19 19 19 19 18 18 17 17 16 16 15 14 13 13 13 12 12 13 13 12 12 12 11 10 9 9 9 8
23 23 21 18 18 19 20 21 19 20 22 23 22 25 26 23 21 19 18 18 18 18 18 18 18 17 17 16 16 16 15 14 13 13 12 12 12 12 12 11 11 10 10 9 8 8 8 7 7
23 19 18 19 17 18 19 20 19 21 21 21 20 21 23 22 18 17 17 17 17 17 17 18 17 17 16 16 15 15 14 13 13 13 12 12 12 11 11 10 9 9 8 8 7 7 6 6 5
20 19 18 18 18 18 20 20 19 20 19 19 18 19 19 18 17 16 17 17 17 17 17 17 17 16 15 15 14 14 13 13 12 12 12 12 11 10 9 9 8 8 7 7 6 6 6 5 5
21 19 19 17 18 18 18 20 20 19 17 17 16 16 16 16 16 16 16 16 16 16 16 16 15 15 14 14 13 13 12 12 12 11 11 10 9 9 8 8 7 7 6 6 6 6 6 5 5
22 20 16 16 17 17 19 20 19 18 17 16 16 15 15 15 15 15 15 15 15 15 15 14 14 14 13 12 12 12 11 11 11 10 10 9 8 8 7 7 6 6 6 6 6 6 5 5 5
22 21 19 16 16 17 17 17 18 17 16 15 14 14 14 14 15 15 15 15 15 14 14 13 13 12 11 11 11 11 10 10 10 9 9 8 8 7 7 6 6 6 6 6 6 5 5 5 5
22 21 19 18 17 16 16 16 16 15 14 14 13 13 13 14 14 14 14 13 13 13 12 12 11 11 11 10 10 10 9 9 8 8 8 7 7 6 6 6 6 6 6 5 5 5 5 4 4
Wind_Speed
8 6 2 3 5 4 2 6 3 3 3 4 9 11 10 5 4 4 4 15 17 15 16 18 19 19 19 19 18 18 18 18 17 16 16 15 15 14 14 15 15 14 13 13 11 10 8 7 5
4 3 3 5 5 1 5 7 5 4 8 11 11 11 10 7 8 11 8 15 17 16 16 18 20 20 19 19 18 18 18 18 17 16 15 14 13 13 12 12 12 12 13 12 10 8 6 5 3
3 2 3 4 4 6 4 3 3 7 11 10 7 8 9 9 12 11 11 18 15 13 15 18 21 20 20 19 19 19 19 18 18 17 15 14 13 12 11 11 12 12 12 12 10 7 5 3 1
3 5 5 3 7 7 3 5 5 3 6 6 9 8 6 8 9 14 20 20 17 13 16 19 20 20 20 20 19 19 19 18 18 17 16 14 13 12 11 12 11 11 10 10 8 7 5 3 0
4 4 3 3 7 6 7 10 8 6 5 5 11 8 5 5 18 23 21 20 17 13 14 19 20 20 20 20 19 17 17 17 17 16 15 14 13 12 12 12 11 10 10 9 9 7 5 3 4
4 4 2 5 8 7 7 13 12 5 6 6 8 8 5 10 20 22 20 18 17 16 14 17 20 20 19 19 18 18 17 16 16 16 15 14 13 12 13 12 12 11 11 11 9 7 6 7 7
4 3 4 6 7 10 10 7 13 9 9 6 6 7 6 10 14 19 19 17 15 15 14 14 17 18 19 19 19 19 18 17 16 15 15 14 13 12 12 12 12 12 11 10 9 8 8 8 7
5 2 4 4 6 8 3 4 7 14 11 7 7 9 8 12 13 16 17 15 14 13 12 12 14 14 15 17 19 19 18 17 16 15 14 13 13 12 12 12 12 12 11 11 10 9 8 7 7
3 1 5 5 5 6 3 2 3 3 11 6 5 7 12 15 15 17 16 12 11 12 11 10 10 12 14 15 16 17 17 16 15 14 13 13 12 12 12 13 13 12 12 11 10 8 7 7 8
5 5 8 6 5 6 9 4 5 4 8 8 9 12 18 14 15 18 19 17 15 15 13 11 10 11 13 13 14 14 14 14 13 12 12 12 11 11 11 12 13 12 12 10 9 7 6 8 9
8 8 7 10 12 10 9 4 3 9 6 13 20 23 22 17 16 17 18 17 17 17 15 13 13 12 11 9 11 10 10 11 12 12 13 12 9 9 9 9 10 10 10 6 3 4 6 7 8
5 9 9 12 15 11 7 5 4 8 11 20 27 30 26 23 21 19 19 17 16 16 17 16 15 12 10 10 9 9 8 8 9 12 14 11 6 6 6 7 8 8 7 5 5 5 6 5 5
9 13 17 17 16 13 7 4 6 9 13 22 26 27 27 24 21 18 18 18 17 17 17 18 16 15 12 8 7 9 8 9 12 12 14 12 6 4 5 5 6 7 7 6 5 4 4 3 4
9 9 10 11 13 9 6 5 1 5 18 23 24 24 23 23 22 18 18 18 19 19 18 18 18 16 12 11 9 8 10 11 12 11 13 14 11 7 5 5 5 5 9 8 5 5 5 4 4
9 9 12 10 9 7 3 9 6 7 18 23 23 22 20 19 21 21 23 22 21 19 18 18 18 15 13 12 12 9 11 12 9 10 13 14 14 12 9 5 4 5 9 10 8 7 6 4 5
5 4 6 11 8 7 2 10 14 8 18 21 19 19 18 18 20 19 21 20 19 18 18 19 18 16 13 11 10 7 9 10 8 10 12 12 13 14 10 5 4 7 9 7 5 4 4 5 5
4 2 5 10 8 5 4 9 14 8 15 20 21 20 20 18 16 16 19 21 19 18 19 19 16 16 13 10 8 6 7 6 8 10 10 12 14 14 12 6 6 9 7 5 5 5 4 5 5
5 4 6 9 9 6 7 12 15 13 11 16 23 22 21 22 23 18 18 18 15 15 17 16 16 15 12 11 10 8 8 6 7 8 10 14 14 15 13 9 8 8 5 5 5 6 6 5 4
6 7 10 13 13 8 11 14 17 17 12 12 17 20 21 22 16 13 14 15 14 14 15 14 17 14 13 12 11 10 7 6 6 6 11 14 15 14 12 8 7 6 5 5 5 4 6 6 4
9 11 13 13 13 6 7 8 10 11 11 12 16 18 18 14 13 15 14 14 15 14 12 11 14 13 13 11 9 7 8 7 6 5 9 13 14 13 12 8 5 5 6 7 7 4 3 4 5
11 12 15 14 14 7 3 8 9 9 4 5 10 13 16 22 25 22 17 14 14 13 12 11 13 12 11 12 11 12 8 6 5 6 6 7 12 12 12 10 8 6 6 6 7 6 4 3 4
13 13 14 13 9 6 1 4 10 8 9 7 7 6 11 18 21 22 19 17 15 11 9 9 11 11 12 13 14 14 9 7 5 5 5 6 9 11 12 12 10 7 6 6 5 5 4 4 3
14 15 10 5 2 3 6 1 9 8 8 11 11 9 9 16 21 22 19 15 12 10 9 10 11 12 12 12 13 12 10 8 6 6 7 5 5 9 11 11 10 7 5 5 5 4 4 3 3
14 5 4 6 6 3 6 1 8 8 10 11 8 7 7 14 14 12 11 12 11 10 11 11 13 12 12 13 13 13 14 12 10 8 6 4 4 4 7 9 8 7 5 4 4 3 4 2 1
6 5 3 4 4 7 5 3 10 12 9 7 4 3 3 12 15 15 14 13 13 13 13 13 15 13 12 14 13 14 14 12 10 9 7 6 4 4 4 5 5 4 3 3 3 2 1 1 3
7 12 10 7 6 6 4 5 6 7 8 9 10 10 14 16 16 15 14 14 14 13 13 13 15 14 13 13 13 12 11 8 6 6 6 7 5 4 4 5 5 4 4 4 3 2 2 3 5
8 7 12 9 6 2 6 6 4 9 13 14 14 15 15 16 16 15 14 14 13 12 11 12 14 13 12 12 12 11 10 9 8 8 8 7 6 4 5 4 3 2 2 3 4 4 5 3 3
12 11 7 7 7 5 5 4 3 1 7 11 13 13 14 14 14 14 13 14 13 12 12 11 11 12 11 10 10 10 10 10 11 11 10 8 6 4 5 4 2 2 3 3 2 2 3 4 4
2 6 6 7 7 8 4 5 4 3 9 13 12 11 12 12 12 12 12 13 14 14 13 12 11 11 11 10 10 10 10 9 9 9 8 7 5 4 3 2 1 1 2 3 5 5 5 5 5
3 3 6 6 6 7 7 4 8 3 10 13 13 11 10 10 9 10 12 13 13 13 13 12 11 11 10 10 9 9 8 8 8 8 7 6 5 4 3 3 4 6 7 7 7 6 5 5 5
Wind_Direction
289 281 140 70 52 53 223 248 226 168 104 123 133 120 112 88 137 157 125 139 137 143 147 141 137 139 141 139 136 133 129 126 123 119 116 115 114 115 118 122 125 126 126 125 124 123 119 114 106
307 331 55 62 86 13 275 247 205 141 132 130 117 110 95 80 99 118 127 144 144 144 146 143 138 138 139 137 135 132 132 131 128 126 124 123 121 120 120 123 127 131 135 136 134 129 122 111 87
310 11 72 75 143 183 255 310 157 124 144 137 116 89 94 117 126 142 149 149 145 143 145 144 139 138 138 138 137 137 137 136 136 134 134 133 131 130 130 129 130 132 137 141 140 135 128 115 66
36 40 50 77 243 218 230 303 310 140 139 117 106 82 87 132 136 140 148 152 147 146 149 146 142 142 142 143 144 144 144 143 142 142 142 141 138 137 135 132 134 136 137 139 138 137 138 139 226
66 74 45 303 265 235 207 238 256 224 152 113 97 89 69 100 126 139 152 152 148 146 150 149 147 148 147 147 148 147 146 145 145 146 147 145 143 142 140 138 139 140 139 139 142 149 161 192 230
52 73 96 262 265 269 246 221 212 192 117 97 93 101 113 135 137 148 153 151 149 149 148 151 151 152 150 149 149 149 149 150 151 152 152 152 151 148 146 145 146 146 147 151 157 169 190 216 238
126 118 216 242 276 286 275 194 169 147 122 117 114 99 132 158 151 149 150 145 146 147 149 151 156 156 154 153 154 155 156 157 159 160 160 158 155 152 152 153 155 157 160 165 174 189 210 232 255
157 104 271 258 267 277 258 140 166 140 138 138 122 132 163 179 155 141 142 140 143 149 154 157 158 156 155 157 159 161 163 164 165 165 165 162 160 160 162 164 168 170 176 182 190 203 225 250 273
121 88 252 246 253 287 331 134 217 150 127 123 130 150 155 158 143 136 139 139 149 156 162 161 160 159 158 159 165 167 170 170 169 169 167 163 164 167 171 176 179 182 190 195 202 213 237 263 280
140 193 234 226 241 296 302 260 182 120 115 106 99 112 135 148 147 150 154 159 163 166 170 168 166 167 166 169 168 171 174 175 173 172 170 168 174 182 184 191 190 195 203 206 212 223 248 268 281
180 215 242 263 269 278 280 251 158 131 144 147 137 139 151 160 162 163 165 169 172 171 171 172 172 172 173 169 168 175 177 178 181 182 182 182 184 190 194 190 199 209 214 217 236 239 250 272 295
244 258 265 273 276 271 251 191 167 174 184 161 152 155 165 170 171 171 169 173 174 175 176 173 174 175 179 170 174 175 175 181 190 194 192 186 178 179 187 184 199 213 212 214 247 247 244 264 274
249 263 268 270 275 261 255 216 189 204 170 163 160 164 174 175 175 175 171 171 177 181 180 176 177 179 180 172 178 178 181 185 195 197 195 190 182 182 194 194 206 219 212 210 226 213 180 160 124
245 260 283 293 290 272 276 290 88 197 160 167 172 178 181 178 175 176 174 175 182 185 184 179 180 183 180 179 181 181 185 187 194 193 189 184 176 167 160 157 170 173 160 154 140 134 123 105 84
246 274 300 296 295 277 310 314 286 178 162 176 184 187 188 184 181 184 182 181 185 186 183 180 182 182 184 184 187 187 188 186 187 183 177 170 160 152 145 139 149 151 135 122 105 90 77 60 46
351 350 315 300 298 282 195 269 278 188 170 187 192 194 196 194 192 190 185 182 184 181 178 180 182 180 181 178 175 172 178 175 172 161 156 154 146 141 128 117 111 109 101 94 82 67 60 46 33
5 312 294 300 286 269 196 244 267 236 187 191 196 199 202 199 200 197 187 182 181 177 173 175 173 173 170 153 140 137 142 139 136 131 125 124 122 119 108 98 93 94 83 67 69 58 63 45 22
253 279 287 278 288 308 272 256 267 268 225 200 194 199 202 200 201 195 185 176 172 169 168 166 164 162 146 130 121 112 98 91 93 101 109 110 111 108 101 93 85 82 75 61 61 64 54 48 22
227 267 276 278 282 291 271 262 264 266 250 202 191 197 201 203 197 183 176 168 164 164 164 163 163 159 147 140 136 130 119 101 84 80 93 98 100 97 92 90 75 69 73 70 72 73 54 35 21
245 260 271 283 283 260 262 273 275 271 238 194 185 193 199 186 174 174 172 171 170 165 158 156 165 159 153 148 140 128 120 103 86 74 73 83 89 88 89 83 76 67 75 63 54 61 69 32 29
248 237 250 257 282 313 333 328 324 320 311 204 191 183 180 178 177 176 172 172 165 163 161 161 163 155 145 137 125 118 105 97 92 91 81 74 84 88 93 86 78 71 77 81 74 74 89 66 29
250 240 235 244 249 278 38 287 297 303 320 302 271 226 185 179 174 173 170 168 165 156 144 141 145 138 133 133 134 135 132 126 122 117 109 99 98 100 99 90 85 86 92 99 91 87 93 100 57
237 246 231 225 199 346 353 1 286 304 290 280 280 271 212 183 175 174 169 158 141 130 128 123 122 122 122 122 126 121 115 113 116 111 107 94 90 102 105 101 100 101 99 105 103 93 82 96 109
229 221 38 51 66 328 272 260 286 267 251 264 279 287 228 176 162 143 124 117 112 109 105 107 106 106 114 117 119 124 128 131 136 136 131 118 103 95 103 101 104 112 113 120 125 97 77 93 102
190 124 42 346 359 261 272 255 255 269 271 258 269 339 94 130 129 121 120 118 114 108 104 105 106 106 112 116 120 127 132 139 147 148 146 143 125 108 108 99 108 112 119 120 117 93 83 226 234
199 151 162 189 217 268 315 233 267 321 32 56 71 80 92 103 112 112 114 115 114 111 109 111 110 111 111 113 117 120 122 125 132 137 141 142 128 125 128 117 123 126 121 133 154 185 238 231 233
162 173 170 152 178 221 276 274 333 40 61 66 75 81 89 97 101 103 103 104 106 105 104 109 111 108 106 108 110 112 111 107 105 104 105 111 108 111 118 129 143 156 168 188 204 238 259 279 279
176 157 109 132 168 226 266 280 288 328 103 98 95 94 93 94 94 95 98 101 102 101 99 96 99 103 101 98 99 104 100 100 103 104 104 111 114 112 123 130 154 223 257 262 260 302 347 26 11
123 132 133 145 163 170 219 265 300 252 148 125 111 100 100 100 101 102 104 108 111 110 107 101 95 95 95 95 95 95 94 97 99 103 109 115 117 118 120 133 166 253 348 35 66 68 59 52 21
85 114 144 169 217 168 159 229 343 54 123 123 116 107 102 103 104 109 112 113 115 114 109 105 102 101 100 99 96 93 90 90 93 95 95 97 94 75 58 43 46 62 74 77 77 64 45 26 356
Height
1523 1523 1522 1522 1525 1537 1536 1520 1506 1506 1508 1507 1509 1510 1515 1519 1524 1530 1527 1529 1531 1533 1535 1538 1539 1540 1541 1542 1544 1546 1548 1550 1551 1552 1553 1554 1555 1556 1556 1557 1558 1560 1561 1562 1563 1564 1564 1565 1566
1521 1521 1521 1521 1532 1545 1536 1515 1507 1505 1506 1508 1509 1510 1513 1520 1520 1523 1525 1530 1532 1533 1535 1537 1539 1540 1541 1543 1544 1546 1548 1549 1551 1552 1554 1555 1556 1557 1557 1558 1559 1560 1561 1562 1563 1564 1564 1565 1566
1519 1519 1521 1522 1532 1538 1524 1508 1506 1506 1506 1505 1507 1509 1514 1521 1522 1524 1527 1531 1533 1534 1536 1538 1539 1541 1542 1543 1545 1546 1548 1549 1550 1552 1553 1555 1556 1557 1558 1559 1560 1561 1562 1562 1563 1564 1564 1565 1566
1518 1519 1520 1527 1529 1524 1513 1506 1506 1508 1507 1505 1505 1511 1517 1521 1522 1525 1528 1531 1533 1535 1537 1539 1540 1541 1543 1544 1546 1547 1548 1549 1550 1552 1553 1555 1556 1557 1558 1559 1561 1562 1562 1563 1563 1564 1565 1565 1566
1517 1518 1525 1531 1525 1515 1509 1507 1506 1509 1505 1504 1504 1512 1519 1523 1523 1525 1529 1532 1533 1534 1536 1538 1540 1542 1543 1544 1546 1547 1548 1549 1550 1551 1553 1554 1556 1557 1559 1560 1561 1562 1562 1563 1563 1564 1565 1565 1566
1518 1519 1531 1534 1520 1507 1502 1501 1503 1505 1505 1506 1507 1513 1521 1523 1523 1525 1528 1531 1533 1534 1535 1538 1540 1541 1543 1544 1545 1546 1548 1549 1550 1551 1553 1555 1556 1557 1559 1560 1561 1562 1562 1563 1563 1564 1565 1566 1566
1517 1522 1528 1523 1515 1506 1495 1492 1495 1499 1501 1505 1508 1515 1521 1524 1524 1526 1529 1531 1533 1534 1535 1537 1539 1541 1542 1544 1545 1546 1548 1549 1550 1552 1553 1555 1556 1557 1559 1560 1561 1562 1562 1563 1563 1564 1565 1566 1566
1515 1519 1521 1518 1512 1504 1492 1492 1492 1493 1497 1503 1507 1512 1518 1522 1525 1527 1530 1532 1534 1535 1536 1537 1539 1540 1542 1543 1545 1546 1548 1549 1550 1551 1553 1554 1556 1557 1558 1560 1560 1561 1562 1563 1563 1564 1565 1566 1566
1514 1522 1524 1515 1506 1500 1494 1494 1493 1491 1494 1500 1504 1508 1513 1521 1525 1527 1529 1532 1533 1535 1536 1537 1539 1540 1542 1543 1544 1546 1548 1549 1550 1551 1552 1554 1555 1556 1558 1559 1560 1561 1561 1562 1563 1564 1565 1566 1566
1511 1521 1513 1502 1498 1497 1496 1494 1491 1491 1494 1499 1503 1507 1514 1521 1524 1525 1527 1529 1531 1533 1535 1537 1539 1540 1541 1542 1544 1545 1547 1548 1549 1550 1552 1553 1555 1556 1557 1559 1559 1560 1561 1561 1562 1563 1565 1566 1566
1505 1507 1501 1497 1496 1496 1495 1492 1491 1491 1496 1495 1498 1503 1510 1516 1521 1523 1525 1527 1529 1531 1533 1535 1537 1539 1540 1542 1543 1544 1546 1547 1548 1550 1551 1553 1554 1556 1557 1558 1559 1560 1561 1561 1562 1563 1564 1565 1565
1502 1498 1496 1494 1492 1493 1493 1491 1490 1489 1490 1490 1491 1494 1500 1506 1512 1517 1520 1524 1527 1529 1530 1533 1535 1537 1539 1540 1541 1543 1544 1545 1547 1549 1551 1552 1553 1554 1555 1557 1558 1559 1560 1560 1561 1561 1562 1562 1563
1500 1496 1492 1490 1488 1487 1486 1486 1486 1485 1486 1488 1489 1491 1494 1499 1505 1511 1515 1519 1523 1526 1528 1530 1533 1535 1537 1538 1540 1541 1543 1544 1546 1548 1549 1550 1551 1552 1554 1555 1556 1557 1558 1558 1558 1559 1559 1560 1561
1494 1491 1489 1487 1485 1482 1481 1480 1482 1482 1483 1487 1488 1488 1490 1495 1501 1506 1510 1513 1517 1521 1524 1527 1530 1533 1535 1536 1538 1539 1541 1543 1544 1546 1547 1548 1549 1551 1552 1553 1554 1555 1556 1556 1557 1557 1558 1558 1559
1492 1493 1489 1484 1481 1479 1478 1480 1477 1479 1483 1485 1485 1486 1489 1493 1497 1500 1502 1505 1510 1516 1519 1523 1527 1530 1532 1534 1536 1537 1539 1540 1542 1544 1545 1546 1548 1549 1550 1551 1552 1553 1555 1555 1556 1556 1557 1557 1557
1492 1495 1499 1487 1481 1478 1482 1490 1473 1476 1481 1484 1485 1487 1488 1490 1492 1495 1498 1501 1506 1511 1515 1520 1523 1526 1529 1532 1534 1536 1537 1539 1541 1542 1544 1545 1547 1548 1549 1550 1551 1552 1553 1554 1554 1554 1554 1554 1553
1499 1504 1500 1492 1479 1478 1482 1486 1471 1470 1476 1480 1482 1484 1485 1486 1490 1492 1494 1497 1501 1506 1511 1515 1518 1522 1525 1528 1531 1534 1536 1537 1539 1540 1542 1544 1545 1547 1548 1549 1550 1551 1551 1552 1552 1551 1551 1550 1549
1506 1502 1500 1497 1482 1480 1484 1483 1471 1467 1469 1472 1475 1478 1480 1481 1481 1485 1489 1494 1499 1504 1508 1510 1514 1518 1521 1524 1527 1530 1533 1535 1537 1538 1540 1541 1543 1544 1545 1547 1547 1548 1548 1549 1549 1548 1547 1546 1545
1496 1499 1502 1492 1480 1483 1484 1481 1472 1464 1464 1467 1470 1472 1473 1474 1478 1484 1488 1492 1497 1501 1504 1507 1510 1513 1516 1518 1520 1524 1528 1531 1534 1536 1538 1539 1540 1541 1542 1543 1545 1545 1546 1546 1546 1546 1544 1542 1540
1494 1500 1499 1490 1478 1480 1481 1478 1469 1462 1459 1460 1464 1467 1468 1472 1477 1481 1485 1489 1493 1497 1502 1505 1508 1509 1511 1513 1516 1520 1523 1527 1530 1533 1534 1536 1537 1538 1539 1541 1542 1543 1543 1543 1543 1542 1541 1539 1537
1492 1496 1494 1492 1480 1478 1478 1482 1474 1464 1459 1458 1459 1460 1462 1464 1468 1473 1478 1483 1488 1493 1497 1501 1504 1506 1509 1511 1513 1516 1520 1523 1526 1528 1531 1533 1535 1536 1537 1538 1539 1540 1540 1540 1539 1538 1538 1537 1535
1492 1481 1481 1482 1488 1493 1483 1501 1483 1471 1464 1459 1458 1458 1458 1459 1461 1465 1471 1476 1482 1489 1496 1500 1503 1506 1507 1509 1510 1512 1516 1519 1522 1525 1528 1531 1533 1534 1536 1537 1537 1537 1537 1536 1536 1535 1535 1534 1533
1478 1471 1474 1474 1481 1490 1489 1498 1493 1474 1469 1460 1455 1454 1455 1457 1458 1461 1466 1472 1481 1489 1495 1499 1502 1504 1506 1508 1510 1513 1516 1520 1523 1525 1528 1530 1531 1533 1535 1535 1535 1535 1535 1534 1534 1534 1533 1532 1531
1465 1469 1474 1483 1493 1505 1494 1497 1498 1477 1465 1457 1453 1451 1451 1454 1459 1464 1470 1477 1484 1490 1494 1497 1500 1503 1505 1508 1510 1513 1516 1519 1522 1525 1527 1529 1530 1532 1533 1534 1534 1534 1534 1534 1533 1532 1531 1530 1530
1464 1483 1503 1505 1515 1510 1491 1493 1491 1464 1456 1454 1452 1451 1449 1453 1460 1467 1474 1480 1485 1490 1494 1497 1499 1501 1504 1507 1509 1512 1516 1519 1522 1524 1526 1528 1530 1532 1533 1533 1534 1534 1533 1533 1532 1531 1530 1529 1529
1464 1474 1502 1514 1517 1508 1490 1493 1482 1464 1459 1456 1455 1454 1453 1457 1463 1470 1477 1482 1487 1491 1494 1497 1498 1501 1504 1507 1508 1511 1515 1518 1520 1523 1525 1528 1530 1531 1532 1533 1533 1533 1533 1532 1531 1530 1529 1528 1527
1462 1470 1470 1491 1499 1505 1501 1484 1475 1469 1467 1465 1464 1463 1464 1466 1470 1475 1480 1485 1489 1493 1496 1498 1499 1502 1505 1507 1509 1511 1514 1517 1520 1522 1525 1528 1530 1531 1532 1533 1533 1532 1532 1531 1531 1529 1528 1526 1524
1445 1454 1478 1492 1507 1514 1499 1489 1487 1476 1474 1473 1473 1472 1473 1475 1477 1481 1484 1488 1491 1495 1498 1499 1502 1504 1506 1508 1511 1513 1515 1518 1520 1522 1525 1527 1529 1530 1531 1532 1532 1531 1531 1530 1529 1527 1525 1523 1521
1448 1454 1464 1482 1489 1504 1509 1500 1479 1475 1475 1475 1478 1479 1480 1481 1483 1485 1488 1490 1493 1495 1499 1501 1504 1506 1508 1511 1513 1515 1517 1519 1522 1523 1525 1527 1528 1529 1530 1530 1530 1530 1529 1527 1526 1524 1521 1519 1517
1442 1448 1460 1479 1484 1488 1497 1500 1479 1476 1477 1479 1481 1484 1485 1486 1488 1489 1490 1492 1494 1496 1499 1502 1506 1509 1511 1513 1515 1517 1518 1520 1522 1524 1525 1527 1527 1528 1528 1528 1528 1527 1525 1524 1523 1521 1518 1515 1512